THORAD AGENA D DEB, 4644

Orbit data source: Space-Track

THORAD AGENA D DEB, 4644 is space debris in SSO originally from a launch on Wed, 08 Apr 1970 UTC launched from the Air Force Western Test Range (AFWTR). Debris objects in space refer to the collection of defunct objects orbiting the Earth. Examples of debris include non-operational satellites, rocket bodies, and fragments generated from explosions, collisions, or faulty payload assembly.

Loading next visibility...
Identifier
4644, 1970-025AC
Orbit
SSO
Country
Flag of USUS
Related business
Manufacturer
Unknown
Mission
Spacecraft
Bus & Motor
Unknown
Mass
Unknown
Launch date (UTC)
1970-04-08 (56 years ago)
Launch vehicle
Unknown
Launch site
Air Force Western Test Range (AFWTR)
Object type
Payload
Rocket body
Debris
Shape & HBR
Unknown shape, 0.1 m
Radar Cross Section
Medium (>0.1 m² and <1 m²)

Expand to show TLE details & history
Last TLE update: 7 hours ago

TLE from 7 hours ago
0 THORAD AGENA D DEB
1 04644U 70025AC  26238.22797802  .00000126  00000-0  22433-3 0  9996
2 04644  99.5452 130.3183 0013539 113.2885  18.0577 13.60567369786704
Epoch: 2026-08-26T05:28Z
TLE epoch observation values (Epoch: 2026-08-26T05:28:17.300Z)
Latitude
47.80954°
Longitude
-95.60279°
Altitude
1,031.447 km
Speed
7.345 km/s
True Right ascension
21h 23m 48s
True Declination
47° 38' 41"
Sunlit
Object was in partial shadow at epoch
Visualization orbit readout
Latitude
Unknown
Longitude
Unknown
Altitude
Unknown
Speed
Unknown
Apparent Right ascension
Unknown
Apparent Declination
Unknown
Sunlit
N/A
Visualization observer readout
Local Sidereal Time
04:15:51
Azimuth
Unknown
Elevation
Unknown
Doppler factor
Unknown
Orbital elements
Apogee altitude
1,040.941 km
Perigee altitude
1,020.879 km
Semi-major axis
7,409.047 km
Eccentricity
0.00135
Inclination
99.5452°
RAAN
130.3183°
Arg. of periapsis
113.2885°
True anomaly
18.10587°
Mean anomaly
18.0577°
Eccentric anomaly
18.08178°
Mean motion
3.4033 °/min
Orbital period
105.78 mins
BSTAR
0.00022433
Loading maneuver chart data...
Computing Atmospheric mass density...

Documentation

Showing up to 5 results
|